FW7496 Weather Reports


Display with metric or nautical units.
time (UTC)temp
F
wind
direction
speed
MPH
gust
MPH
rain 1hr
in
rain 24hr
in
rain mn
in
humidity
%
barometer
mb
20260906223746 102 261 1.0 4.0 0.00 0.00 0.00 40 1059.8
20260906223242 101 231 1.0 2.0 0.00 0.00 0.00 41 1059.8
20260906222740 101 214 4.0 6.0 0.00 0.00 0.00 41 1059.9
20260906222239 101 240 0.0 6.0 0.00 0.00 0.00 42 1059.9
20260906221738 100 189 1.0 6.0 0.00 0.00 0.00 43 1059.8
20260906221237 100 102 2.0 4.0 0.00 0.00 0.00 42 1060.2
20260906220733 99 195 1.0 6.0 0.00 0.00 0.00 44 1060.0
20260906220228 99 127 2.0 7.0 0.00 0.00 0.00 43 1060.2
20260906215727 100 218 0.0 3.0 0.00 0.00 0.00 42 1060.0
20260906215227 100 121 3.0 10.0 0.00 0.00 0.00 42 1060.0
20260906214725 100 194 1.0 6.0 0.00 0.00 0.00 42 1059.9
20260906214221 99 132 2.0 6.0 0.00 0.00 0.00 42 1059.9
20260906213720 101 60 4.0 11.0 0.00 0.00 0.00 41 1060.0
20260906213219 100 205 2.0 3.0 0.00 0.00 0.00 41 1060.3
20260906212717 101 188 1.0 2.0 0.00 0.00 0.00 41 1060.4
20260906212213 100 185 1.0 3.0 0.00 0.00 0.00 42 1060.4
20260906211713 96 189 1.0 2.0 0.00 0.00 0.00 44 1060.5
20260906211208 95 138 1.0 9.0 0.00 0.00 0.00 47 1060.5
20260906210703 96 120 5.0 7.0 0.00 0.00 0.00 46 1060.7
20260906210203 96 132 2.0 9.0 0.00 0.00 0.00 45 1060.7
20260906205659 98 145 5.0 8.0 0.00 0.00 0.00 43 1060.8
20260906205155 99 93 1.0 8.0 0.00 0.00 0.00 43 1060.8
20260906204655 101 137 3.0 7.0 0.00 0.00 0.00 41 1060.8
20260906204154 101 239 1.0 3.0 0.00 0.00 0.00 40 1060.6
20260906203654 101 106 3.0 4.0 0.00 0.00 0.00 41 1060.9
20260906203149 102 154 1.0 3.0 0.00 0.00 0.00 39 1060.8
20260906202646 102 119 5.0 7.0 0.00 0.00 0.00 39 1060.7
20260906202145 102 172 2.0 4.0 0.00 0.00 0.00 39 1061.0
20260906201641 102 266 1.0 4.0 0.00 0.00 0.00 39 1061.1
20260906201139 100 207 1.0 3.0 0.00 0.00 0.00 40 1061.1
20260906200636 98 137 1.0 3.0 0.00 0.00 0.00 42 1061.0
20260906200131 98 31 5.0 6.0 0.00 0.00 0.00 43 1061.3
20260906195627 98 194 2.0 6.0 0.00 0.00 0.00 42 1061.2
20260906195123 98 35 1.0 8.0 0.00 0.00 0.00 43 1061.4
20260906194619 97 54 5.0 9.0 0.00 0.00 0.00 43 1061.3
20260906194115 99 141 5.0 11.0 0.00 0.00 0.00 43 1061.4
20260906193615 99 89 6.0 9.0 0.00 0.00 0.00 42 1061.5
20260906193110 97 193 1.0 4.0 0.00 0.00 0.00 44 1061.5
20260906192605 96 97 1.0 4.0 0.00 0.00 0.00 45 1061.6
20260906192104 99 108 4.0 11.0 0.00 0.00 0.00 43 1061.6
20260906191600 99 229 0.0 4.0 0.00 0.00 0.00 41 1061.7
20260906191059 98 223 2.0 3.0 0.00 0.00 0.00 42 1061.7
20260906190558 97 30 1.0 6.0 0.00 0.00 0.00 44 1061.8
20260906190053 98 81 4.0 7.0 0.00 0.00 0.00 44 1061.7
20260906185552 97 88 4.0 8.0 0.00 0.00 0.00 44 1061.8
20260906185051 98 83 2.0 3.0 0.00 0.00 0.00 44 1062.0
20260906184546 98 84 4.0 8.0 0.00 0.00 0.00 44 1061.9
20260906184042 98 65 6.0 7.0 0.00 0.00 0.00 44 1062.0
20260906183538 98 143 0.0 3.0 0.00 0.00 0.00 43 1062.1
20260906183033 96 128 2.0 6.0 0.00 0.00 0.00 45 1062.2
20260906182528 95 142 3.0 6.0 0.00 0.00 0.00 45 1062.3
20260906182024 93 172 0.0 1.0 0.00 0.00 0.00 48 1062.5
20260906181520 93 190 1.0 1.0 0.00 0.00 0.00 49 1062.3
20260906181015 95 78 2.0 3.0 0.00 0.00 0.00 47 1062.6
20260906180510 95 181 0.0 3.0 0.00 0.00 0.00 47 1062.8
20260906180009 95 156 3.0 6.0 0.00 0.00 0.00 46 1062.6
20260906175503 94 97 2.0 7.0 0.00 0.00 0.00 48 1062.8
20260906175003 94 62 1.0 7.0 0.00 0.00 0.00 49 1063.0
20260906174501 93 178 3.0 4.0 0.00 0.00 0.00 50 1063.2
20260906173956 93 65 3.0 6.0 0.00 0.00 0.00 50 1063.2
20260906173452 95 90 5.0 9.0 0.00 0.00 0.00 47 1063.2
20260906172951 96 30 5.0 8.0 0.00 0.00 0.00 46 1063.3
20260906172448 95 59 1.0 3.0 0.00 0.00 0.00 47 1063.4
20260906171943 93 178 0.0 1.0 0.00 0.00 0.00 49 1063.4
20260906171443 94 114 1.0 6.0 0.00 0.00 0.00 48 1063.5
20260906170938 97 46 2.0 4.0 0.00 0.00 0.00 45 1063.6
20260906170435 97 169 2.0 9.0 0.00 0.00 0.00 44 1063.3
20260906165931 96 155 3.0 4.0 0.00 0.00 0.00 45 1063.5
20260906165430 95 119 3.0 6.0 0.00 0.00 0.00 46 1063.6
20260906164926 95 121 4.0 7.0 0.00 0.00 0.00 47 1063.7
20260906164424 94 200 1.0 7.0 0.00 0.00 0.00 48 1063.7
20260906163921 95 59 5.0 8.0 0.00 0.00 0.00 48 1063.7
20260906163416 95 279 2.0 6.0 0.00 0.00 0.00 49 1063.8
20260906162915 94 57 3.0 6.0 0.00 0.00 0.00 49 1063.7
20260906162413 94 329 1.0 4.0 0.00 0.00 0.00 49 1063.7
20260906161908 93 96 2.0 2.0 0.00 0.00 0.00 51 1063.8
20260906161408 93 336 4.0 6.0 0.00 0.00 0.00 51 1063.8
20260906160907 92 241 2.0 3.0 0.00 0.00 0.00 51 1063.6
20260906160401 93 220 2.0 4.0 0.00 0.00 0.00 51 1063.8
20260906155858 94 37 1.0 3.0 0.00 0.00 0.00 50 1063.7
20260906155352 93 128 1.0 2.0 0.00 0.00 0.00 51 1063.8
20260906154849 91 169 1.0 1.0 0.00 0.00 0.00 54 1063.8
20260906154343 91 307 3.0 3.0 0.00 0.00 0.00 55 1063.6
20260906153842 90 271 1.0 6.0 0.00 0.00 0.00 57 1063.7
20260906153341 90 209 2.0 4.0 0.00 0.00 0.00 57 1063.7
20260906152837 89 251 0.0 2.0 0.00 0.00 0.00 57 1063.6
20260906152332 89 226 2.0 4.0 0.00 0.00 0.00 58 1063.7
20260906151831 89 279 3.0 6.0 0.00 0.00 0.00 58 1063.6
20260906151326 89 262 1.0 6.0 0.00 0.00 0.00 58 1063.7
20260906150822 89 271 3.0 4.0 0.00 0.00 0.00 58 1063.6
20260906150318 89 206 1.0 2.0 0.00 0.00 0.00 58 1063.8
20260906145817 88 340 2.0 3.0 0.00 0.00 0.00 58 1063.8
20260906145315 87 263 3.0 4.0 0.00 0.00 0.00 60 1063.7
20260906144811 87 229 4.0 4.0 0.00 0.00 0.00 61 1063.6
20260906144306 86 265 3.0 4.0 0.00 0.00 0.00 61 1063.8
20260906143805 87 223 4.0 4.0 0.00 0.00 0.00 61 1063.9
20260906143302 86 308 1.0 3.0 0.00 0.00 0.00 62 1063.8
20260906142802 87 208 2.0 3.0 0.00 0.00 0.00 61 1063.7
20260906142257 86 209 1.0 3.0 0.00 0.00 0.00 61 1063.6
20260906141756 86 222 1.0 4.0 0.00 0.00 0.00 62 1063.5
20260906141251 86 213 2.0 3.0 0.00 0.00 0.00 62 1063.6
20260906140750 86 100 0.0 1.0 0.00 0.00 0.00 62 1063.4
20260906140245 86 190 0.0 1.0 0.00 0.00 0.00 62 1063.6
20260906135742 86 171 0.0 3.0 0.00 0.00 0.00 63 1063.4
20260906135238 86 181 0.0 0.0 0.00 0.00 0.00 63 1063.4
20260906134733 85 153 0.0 1.0 0.00 0.00 0.00 64 1063.5
20260906134228 84 160 0.0 0.0 0.00 0.00 0.00 66 1063.7
20260906133724 84 165 1.0 2.0 0.00 0.00 0.00 67 1063.3
20260906133219 84 178 1.0 1.0 0.00 0.00 0.00 68 1063.5
20260906132714 82 154 0.0 0.0 0.00 0.00 0.00 70 1063.5
20260906132210 80 144 0.0 0.0 0.00 0.00 0.00 74 1063.4
20260906131705 79 121 0.0 0.0 0.00 0.00 0.00 75 1063.5
20260906131200 78 75 1.0 1.0 0.00 0.00 0.00 77 1063.4
20260906130655 77 144 0.0 1.0 0.00 0.00 0.00 78 1063.2
20260906130151 77 97 0.0 0.0 0.00 0.00 0.00 78 1063.2
20260906125648 75 156 0.0 0.0 0.00 0.00 0.00 82 1063.2
20260906125147 74 159 0.0 0.0 0.00 0.00 0.00 84 1063.2
20260906124643 73 159 0.0 0.0 0.00 0.00 0.00 87 1063.0
20260906124138 72 137 0.0 0.0 0.00 0.00 0.00 88 1062.8
20260906123637 71 135 0.0 0.0 0.00 0.00 0.00 89 1062.8
20260906123132 71 129 0.0 0.0 0.00 0.00 0.00 89 1062.8
20260906122632 71 123 0.0 0.0 0.00 0.00 0.00 89 1062.8
20260906122127 71 91 0.0 0.0 0.00 0.00 0.00 89 1062.7
20260906121623 71 117 0.0 0.0 0.00 0.00 0.00 89 1062.7
20260906121120 71 101 0.0 1.0 0.00 0.00 0.00 89 1062.7
20260906120615 71 128 0.0 0.0 0.00 0.00 0.00 88 1062.6
20260906120113 71 128 0.0 1.0 0.00 0.00 0.00 88 1062.5
20260906115612 71 115 0.0 0.0 0.00 0.00 0.00 89 1062.3
20260906115108 71 129 0.0 0.0 0.00 0.00 0.00 88 1062.5
20260906114607 71 126 0.0 0.0 0.00 0.00 0.00 88 1062.3
20260906114103 71 132 0.0 0.0 0.00 0.00 0.00 88 1062.2
20260906113602 71 131 0.0 0.0 0.00 0.00 0.00 88 1062.4
20260906113057 72 132 0.0 0.0 0.00 0.00 0.00 88 1062.3
20260906112557 72 132 0.0 0.0 0.00 0.00 0.00 88 1062.1
20260906112054 72 132 0.0 0.0 0.00 0.00 0.00 88 1062.1
20260906111553 72 104 0.0 0.0 0.00 0.00 0.00 88 1062.0
20260906111048 72 156 0.0 0.0 0.00 0.00 0.00 89 1061.9
20260906110548 72 156 0.0 0.0 0.00 0.00 0.00 89 1062.0
20260906110048 72 184 0.0 0.0 0.00 0.00 0.00 88 1062.1
20260906105543 72 171 0.0 0.0 0.00 0.00 0.00 87 1061.8
20260906105039 73 144 0.0 0.0 0.00 0.00 0.00 87 1061.9
20260906104537 73 144 0.0 0.0 0.00 0.00 0.00 86 1061.9
20260906104032 73 133 0.0 0.0 0.00 0.00 0.00 86 1062.1
20260906103530 73 149 0.0 0.0 0.00 0.00 0.00 86 1062.0
20260906103026 73 174 0.0 0.0 0.00 0.00 0.00 85 1061.9
20260906102526 74 170 0.0 0.0 0.00 0.00 0.00 84 1062.1
20260906102021 74 132 0.0 0.0 0.00 0.00 0.00 85 1061.9
20260906101521 74 168 0.0 0.0 0.00 0.00 0.00 85 1062.0
20260906101016 74 142 0.0 0.0 0.00 0.00 0.00 84 1061.9
20260906100511 74 133 0.0 0.0 0.00 0.00 0.00 84 1061.9
20260906100006 75 150 0.0 0.0 0.00 0.00 0.00 83 1061.8
20260906095501 75 142 0.0 0.0 0.00 0.00 0.00 83 1061.7
20260906094956 75 170 0.0 0.0 0.00 0.00 0.00 81 1061.9
20260906094455 76 134 0.0 0.0 0.00 0.00 0.00 81 1062.0
20260906093951 76 145 0.0 0.0 0.00 0.00 0.00 81 1061.8
20260906093447 76 137 1.0 1.0 0.00 0.00 0.00 82 1061.9
20260906092947 76 283 1.0 1.0 0.00 0.00 0.00 81 1062.1
20260906092447 76 89 2.0 2.0 0.00 0.00 0.00 81 1061.9
20260906091942 76 112 0.0 1.0 0.00 0.00 0.00 81 1061.7
20260906091438 76 117 0.0 1.0 0.00 0.00 0.00 80 1061.8
20260906090935 76 101 0.0 1.0 0.00 0.00 0.00 80 1061.7
20260906090430 76 84 1.0 1.0 0.00 0.00 0.00 80 1061.8
20260906085930 76 97 0.0 1.0 0.00 0.00 0.00 80 1061.6
20260906085429 76 117 0.0 1.0 0.00 0.00 0.00 80 1061.7
20260906084928 76 91 1.0 1.0 0.00 0.00 0.00 79 1061.8
20260906084423 76 137 0.0 2.0 0.00 0.00 0.00 79 1061.5
20260906083922 76 149 0.0 0.0 0.00 0.00 0.00 79 1061.7
20260906083418 76 134 0.0 0.0 0.00 0.00 0.00 79 1061.7
20260906082917 77 137 0.0 0.0 0.00 0.00 0.00 79 1061.4
20260906082413 77 131 0.0 0.0 0.00 0.00 0.00 78 1061.5
20260906081909 77 138 0.0 0.0 0.00 0.00 0.00 78 1061.5
20260906081404 77 159 0.0 0.0 0.00 0.00 0.00 78 1061.7
20260906080900 77 178 0.0 1.0 0.00 0.00 0.00 78 1061.7
20260906080356 77 191 1.0 1.0 0.00 0.00 0.00 78 1061.7
20260906075855 77 177 0.0 0.0 0.00 0.00 0.00 78 1061.7
20260906075350 77 148 0.0 1.0 0.00 0.00 0.00 77 1061.7
20260906074846 77 166 0.0 2.0 0.00 0.00 0.00 77 1061.9
20260906074345 77 147 0.0 1.0 0.00 0.00 0.00 77 1061.7
20260906073844 78 153 0.0 0.0 0.00 0.00 0.00 76 1061.6
20260906073339 78 134 0.0 1.0 0.00 0.00 0.00 76 1061.9
20260906072836 78 173 0.0 1.0 0.00 0.00 0.00 76 1061.8
20260906072331 78 180 0.0 1.0 0.00 0.00 0.00 76 1061.6
20260906071827 78 154 1.0 1.0 0.00 0.00 0.00 75 1061.9
20260906071327 78 167 0.0 1.0 0.00 0.00 0.00 75 1061.9
20260906070824 78 121 1.0 2.0 0.00 0.00 0.00 75 1062.0
20260906070319 78 190 1.0 1.0 0.00 0.00 0.00 74 1061.9
20260906065820 79 164 0.0 2.0 0.00 0.00 0.00 74 1062.0
20260906065315 79 150 1.0 2.0 0.00 0.00 0.00 73 1062.0
20260906064811 79 125 0.0 2.0 0.00 0.00 0.00 73 1062.1
20260906064307 79 122 1.0 1.0 0.00 0.00 0.00 72 1062.3
20260906063807 79 165 0.0 2.0 0.00 0.00 0.00 72 1062.4
20260906063302 80 170 0.0 2.0 0.00 0.00 0.00 72 1062.5
20260906062757 80 102 0.0 2.0 0.00 0.00 0.00 71 1062.4
20260906062256 80 158 2.0 6.0 0.00 0.00 0.00 71 1062.3
20260906061752 80 163 3.0 4.0 0.00 0.00 0.00 71 1062.5
20260906061248 80 189 0.0 3.0 0.00 0.00 0.00 70 1062.5
20260906060743 80 183 1.0 2.0 0.00 0.00 0.00 70 1062.7
20260906060241 80 130 2.0 2.0 0.00 0.00 0.00 69 1062.5
20260906055736 80 107 2.0 6.0 0.00 0.00 0.00 69 1062.5
20260906055231 81 152 1.0 4.0 0.00 0.00 0.00 69 1062.6
20260906054727 81 113 2.0 3.0 0.00 0.00 0.00 68 1062.6
20260906054222 81 131 1.0 2.0 0.00 0.00 0.00 68 1062.4
20260906053718 81 181 0.0 2.0 0.00 0.00 0.00 68 1062.5
20260906053214 81 127 2.0 2.0 0.00 0.00 0.00 68 1062.5
20260906052708 81 211 1.0 3.0 0.00 0.00 0.00 68 1062.4
20260906052205 81 135 1.0 2.0 0.00 0.00 0.00 68 1062.5
20260906051702 82 165 1.0 2.0 0.00 0.00 0.00 67 1062.5
20260906051201 82 139 0.0 4.0 0.00 0.00 0.00 67 1062.5
20260906050656 82 120 1.0 2.0 0.00 0.00 0.00 67 1062.6
20260906050151 82 114 1.0 3.0 0.00 0.00 0.00 67 1062.5
20260906045650 82 124 2.0 3.0 0.00 0.00 0.00 67 1062.5
20260906045145 82 125 1.0 3.0 0.00 0.00 0.00 67 1062.7
20260906044641 82 134 2.0 2.0 0.00 0.00 0.00 67 1062.4
20260906044136 82 158 2.0 6.0 0.00 0.00 0.00 67 1062.7
20260906043632 83 167 0.0 1.0 0.00 0.00 0.00 67 1062.4
20260906043127 83 152 0.0 3.0 0.00 0.00 0.00 67 1062.5
20260906042627 83 158 0.0 2.0 0.00 0.00 0.00 66 1062.4
20260906042121 83 169 1.0 3.0 0.00 0.00 0.00 66 1062.3
20260906041618 83 194 3.0 4.0 0.00 0.00 0.00 66 1062.4
20260906041117 83 158 0.0 2.0 0.00 0.00 0.00 66 1062.4
20260906040613 84 161 1.0 3.0 0.00 0.00 0.00 66 1062.4
20260906040109 84 169 0.0 2.0 0.00 0.00 0.00 65 1062.4
20260906035603 84 128 1.0 3.0 0.00 0.00 0.00 65 1062.3
20260906035059 84 139 0.0 6.0 0.00 0.00 0.00 65 1062.1
20260906034559 84 85 3.0 3.0 0.00 0.00 0.00 64 1062.1
20260906034054 84 154 1.0 3.0 0.00 0.00 0.00 64 1062.0
20260906033549 85 88 3.0 7.0 0.00 0.00 0.00 63 1062.2
20260906033045 85 113 4.0 6.0 0.00 0.00 0.00 63 1062.1
20260906032541 85 104 4.0 8.0 0.00 0.00 0.00 62 1062.2
20260906032036 85 146 2.0 4.0 0.00 0.00 0.00 61 1062.0
20260906031532 85 198 4.0 6.0 0.00 0.00 0.00 61 1062.0
20260906031027 85 156 2.0 3.0 0.00 0.00 0.00 61 1061.8
20260906030526 85 145 3.0 6.0 0.00 0.00 0.00 60 1061.7
20260906030026 85 131 1.0 6.0 0.00 0.00 0.00 59 1061.8
20260906025526 85 93 1.0 4.0 0.00 0.00 0.00 58 1061.7
20260906025024 85 136 3.0 6.0 0.00 0.00 0.00 57 1061.9
20260906024519 85 137 2.0 4.0 0.00 0.00 0.00 56 1061.7
20260906024019 84 144 1.0 4.0 0.00 0.00 0.00 56 1061.6
20260906023515 85 133 0.0 1.0 0.00 0.00 0.00 55 1061.3
20260906023010 85 137 0.0 0.0 0.00 0.00 0.00 55 1061.1
20260906022506 85 128 0.0 2.0 0.00 0.00 0.00 54 1061.2
20260906022001 85 136 0.0 2.0 0.00 0.00 0.00 54 1061.2
20260906021456 86 123 1.0 2.0 0.00 0.00 0.00 53 1061.0
20260906020950 86 102 0.0 1.0 0.00 0.00 0.00 53 1061.0
20260906020444 86 90 1.0 2.0 0.00 0.00 0.00 53 1060.9
20260906015944 86 95 1.0 1.0 0.00 0.00 0.00 52 1060.7
20260906015443 86 142 0.0 1.0 0.00 0.00 0.00 52 1060.8
20260906014943 86 148 0.0 3.0 0.00 0.00 0.00 52 1060.7
20260906014438 86 99 2.0 2.0 0.00 0.00 0.00 51 1060.6
20260906013934 86 76 2.0 3.0 0.00 0.00 0.00 51 1060.4
20260906013429 87 132 0.0 0.0 0.00 0.00 0.00 51 1060.6
20260906012925 87 133 0.0 0.0 0.00 0.00 0.00 50 1060.4
20260906012425 88 115 0.0 1.0 0.00 0.00 0.00 49 1060.2
20260906011924 88 124 0.0 0.0 0.00 0.00 0.00 49 1060.4
20260906011420 89 149 0.0 1.0 0.00 0.00 0.00 48 1060.3
20260906010915 90 142 0.0 1.0 0.00 0.00 0.00 47 1060.3
20260906010410 90 141 0.0 1.0 0.00 0.00 0.00 46 1060.3
20260906005906 91 144 0.0 1.0 0.00 0.00 0.00 46 1060.3
20260906005406 91 160 0.0 1.0 0.00 0.00 0.00 45 1060.4
20260906004905 92 144 1.0 1.0 0.00 0.00 0.00 45 1060.2
20260906004404 92 167 0.0 3.0 0.00 0.00 0.00 44 1059.9
20260906003900 93 99 2.0 3.0 0.00 0.00 0.00 44 1060.0
20260906003356 93 78 2.0 3.0 0.00 0.00 0.00 43 1059.9
20260906002851 94 131 1.0 3.0 0.00 0.00 0.00 43 1059.8
20260906002350 95 155 2.0 4.0 0.00 0.00 0.00 42 1059.8
20260906001846 95 130 2.0 3.0 0.00 0.00 0.00 41 1059.9
20260906001341 96 123 3.0 7.0 0.00 0.00 0.00 41 1059.9
20260906000836 96 80 2.0 3.0 0.00 0.00 0.00 40 1060.2
20260906000336 97 245 0.0 2.0 0.00 0.00 0.00 40 1059.9
20260905235836 96 160 2.0 2.0 0.00 0.00 0.00 40 1060.0
20260905235331 96 92 2.0 3.0 0.00 0.00 0.00 40 1060.0
20260905234826 97 140 2.0 4.0 0.00 0.00 0.00 39 1059.8
20260905234322 97 167 1.0 4.0 0.00 0.00 0.00 39 1059.9
20260905233816 97 175 2.0 3.0 0.00 0.00 0.00 39 1059.6
20260905233312 98 196 2.0 4.0 0.00 0.00 0.00 38 1059.7
20260905232811 98 155 1.0 4.0 0.00 0.00 0.00 39 1059.9
20260905232307 99 173 3.0 7.0 0.00 0.00 0.00 38 1060.2
20260905231802 99 152 2.0 3.0 0.00 0.00 0.00 37 1059.8
20260905231257 99 148 1.0 2.0 0.00 0.00 0.00 37 1059.5
20260905230754 99 190 1.0 2.0 0.00 0.00 0.00 38 1059.8
20260905230251 99 207 2.0 4.0 0.00 0.00 0.00 38 1059.6
20260905225751 98 181 1.0 3.0 0.00 0.00 0.00 38 1059.9
20260905225246 98 209 1.0 2.0 0.00 0.00 0.00 38 1059.7
20260905224745 97 145 4.0 4.0 0.00 0.00 0.00 39 1059.7
20260905224241 96 88 2.0 3.0 0.00 0.00 0.00 40 1060.0